South Lake Tahoe, CA

5:27 AM PDT on October 23, 2019 (GMT -0700)
Lake Tahoe

Weather History for KTVL - September, 2019

Change the Weather History Date:

Sunday, September 22, 2019

  Actual Average Record
Temperature  
Mean Temperature 50 °F 52 °F  
Max Temperature 69 °F 72 °F 83 °F (2011)
Min Temperature 30 °F 33 °F 24 °F (1980)
Degree Days  
Heating Degree Days 16 13  
Month to date heating degree days 244 219  
Since 1 July heating degree days 485 515  
Cooling Degree Days 0 0  
Month to date cooling degree days 2 0  
Year to date cooling degree days 20 30  
Moisture  
Dew Point 33 °F    
Average Humidity 56    
Maximum Humidity 100    
Minimum Humidity 23    
Precipitation  
Precipitation 0.00 in - 0.23 in (1931)
Month to date precipitation 0.11  
Year to date precipitation 17.85  
Sea Level Pressure  
Sea Level Pressure 30.04 in    
Wind  
Wind Speed 5 mph ()    
Max Wind Speed 20 mph    
Max Gust Speed 29 mph    
Visibility 10.0 miles    
Events      
T = Trace of Precipitation, MM = Missing Value Source: Averaged Metar Reports

Daily Weather History Graph

Daily Weather History Graph

Search for Another Location

Airport or City:

Astronomy

Sep. 22, 2019 Rise Set
Actual Time 6:47 AM PDT 6:57 PM PDT
Civil Twilight 6:20 AM PDT 7:23 PM PDT
Nautical Twilight 5:49 AM PDT 7:54 PM PDT
Astronomical Twilight 5:18 AM PDT 8:26 PM PDT
Moon No Moon Rise 2:54 PM PDT (9/22)
Length of Visible Light 13h 02m
Length of Day
12h 09m
Last Quarter, 43% of the Moon is Illuminated
Sep 22
Last Quarter
Sep 28
New
Oct 5
First Quarter
Oct 13
Full
Oct 21
Last Quarter

Hourly Weather History & Observations

Time (PDT) Temp. Windchill Dew Point Humidity Pressure Visibility Wind Dir Wind Speed Gust Speed Precip Events Conditions
12:53 AM 37.0 °F - 34.0 °F 89% 30.10 in 10.0 mi Calm Calm - N/A   Clear
1:53 AM 36.0 °F 33.3 °F 33.1 °F 89% 30.09 in 10.0 mi South 3.5 mph - N/A   Clear
2:53 AM 36.0 °F - 32.0 °F 86% 30.08 in 10.0 mi Calm Calm - N/A   Clear
3:53 AM 35.1 °F 32.2 °F 32.0 °F 89% 30.07 in 10.0 mi SSW 3.5 mph - N/A   Clear
4:53 AM 34.0 °F 29.8 °F 32.0 °F 92% 30.07 in 10.0 mi South 4.6 mph - N/A   Clear
5:53 AM 33.1 °F 30.0 °F 30.9 °F 92% 30.09 in 10.0 mi South 3.5 mph - N/A   Clear
6:53 AM 30.9 °F 26.2 °F 30.0 °F 96% 30.11 in 10.0 mi South 4.6 mph - N/A   Clear
7:53 AM 34.0 °F 29.8 °F 32.0 °F 92% 30.12 in 10.0 mi South 4.6 mph - N/A   Clear
8:53 AM 45.0 °F - 37.0 °F 74% 30.10 in 10.0 mi Calm Calm - N/A   Clear
9:53 AM 59.0 °F - 34.0 °F 39% 30.06 in 10.0 mi Variable 3.5 mph - N/A   Clear
10:53 AM 64.9 °F - 28.9 °F 26% 30.03 in 10.0 mi South 5.8 mph - N/A   Clear
11:53 AM 66.9 °F - 28.9 °F 24% 30.02 in 10.0 mi SSW 13.8 mph 26.5 mph N/A   Clear
12:53 PM 68.0 °F - 30.9 °F 25% 30.01 in 10.0 mi SSW 10.4 mph 17.3 mph N/A   Clear
1:53 PM 69.1 °F - 30.9 °F 24% 29.99 in 10.0 mi SSW 13.8 mph 23.0 mph N/A   Clear
2:53 PM 68.0 °F - 30.0 °F 24% 30.01 in 10.0 mi South 13.8 mph 28.8 mph N/A   Clear
3:53 PM 68.0 °F - 32.0 °F 26% 29.99 in 10.0 mi South 18.4 mph 23.0 mph N/A   Clear
4:53 PM 64.9 °F - 34.0 °F 32% 29.99 in 10.0 mi SSW 13.8 mph 19.6 mph N/A   Clear
5:53 PM 62.1 °F - 36.0 °F 38% 30.01 in 10.0 mi South 9.2 mph - N/A   Scattered Clouds
6:53 PM 57.9 °F - 39.0 °F 49% 30.02 in 10.0 mi South 9.2 mph - N/A   Clear
7:53 PM 55.9 °F - 39.0 °F 53% 30.02 in 10.0 mi South 5.8 mph - N/A   Clear
8:53 PM 55.9 °F - 35.1 °F 45% 29.98 in 10.0 mi SSW 11.5 mph 18.4 mph N/A   Clear
9:53 PM 55.9 °F - 30.9 °F 39% 29.97 in 10.0 mi SSW 9.2 mph - N/A   Clear
10:53 PM 53.1 °F - 33.1 °F 47% 29.97 in 10.0 mi Calm Calm - N/A   Clear
11:53 PM 45.0 °F - 33.1 °F 63% 29.99 in 10.0 mi Calm Calm - N/A   Clear